AirNav   Everest Fuels
 
 1620 users online  

PS92 VA Medical Center Heliport
Lebanon, Pennsylvania, USA

GOING TO LEBANON?


FAA INFORMATION EFFECTIVE 10 SEPTEMBER 2020

Location

FAA Identifier: PS92
Lat/Long: 40-18-55.3310N 076-24-10.8580W
40-18.922183N 076-24.180967W
40.3153697,-76.4030161
(estimated)
Elevation: 510 ft. / 155 m (estimated)
Variation: 11W (1985)
From city: 1 mile S of LEBANON, PA
Time zone: UTC -4 (UTC -5 during Standard Time)
Zip code: 17042

Heliport Operations

Heliport use: Private use, MEDICAL USE.
Activation date: 07/1986
Control tower: no
ARTCC: NEW YORK CENTER
FSS: WILLIAMSPORT FLIGHT SERVICE STATION
Attendance: UNATNDD
Segmented circle: yes

Heliport Communications

WX AWOS-2 at 9D4 (4 nm NE): 118.45 (717-866-2906)
WX ASOS at MUI (10 nm NW): 124.175 (717-861-2536)
WX ASOS at LNS (13 nm SE): 125.675 (717-569-8860)
WX ASOS at MDT (18 nm SW): 118.8 (717-944-1372)

Nearby radio navigation aids

VOR radial/distance  VOR name  Freq  Var
LRPr345/12.8LANCASTER VOR/DME117.3009W
RAVr159/16.9RAVINE VORTAC114.6011W
HARr099/30.5HARRISBURG VORTAC112.5010W
SEGr150/36.0SELINSGROVE VOR/DME110.4008W
ETXr253/36.5EAST TEXAS VOR/DME110.2009W
PTWr287/39.0POTTSTOWN VORTAC116.5009W

 
NDB name  Hdg/Dist  Freq  Var  ID
BELLGROVE147/10.032810WBZJ -... --.. .---

Heliport Services

Runway Information

Helipad H1

Dimensions: 60 x 60 ft. / 18 x 18 m
Surface: turf
Traffic pattern: leftleft

Heliport Ownership and Management from official FAA records

Ownership: Publicly-owned
Owner: VA MEDICAL CENTER
1700 S. LINCOLN AVENUE
LEBANON, PA 17042
Phone 717-272-6621
Manager: THADDEUS S. KOCUBA
1700 S. LINCOLN AVENUE
LEBANON, PA 17042
Phone 717-228-6050

Additional Remarks

FOR CD CTC HARRISBURG APCH AT 800-932-0712.

Instrument Procedures

There are no published instrument procedures at PS92.

Some nearby airports with instrument procedures:

08N - Keller Brothers Airport (4 nm SE)
9D4 - Deck Airport (4 nm NE)
58N - Reigle Field Airport (8 nm W)
KMUI - Muir Army Airfield (Fort Indiantown Gap) (10 nm NW)
KLNS - Lancaster Airport (13 nm SE)
N71 - Donegal Springs Airpark (16 nm SW)
74N - Bendigo Airport (16 nm NW)
KMDT - Harrisburg International Airport (18 nm SW)
 
Loc | Ops | Rwys | IFR | FBO | Links
Com | Nav | Svcs | Stats | Notes
Area around PS92 (VA Medical Center Heliport)
 
Road maps at: MapQuest Bing Google
 
Aerial photo
No photo
 
Sectional chart

 
Airport distance calculator
Flying to VA Medical Center Heliport? Find the distance to fly.

From to PS92

Sunrise and sunset
Times for 29-Sep-2020
 Local
(UTC-4)
 Zulu
(UTC)
Morning civil twilight06:3510:35
Sunrise07:0211:02
Sunset18:4922:49
Evening civil twilight19:1623:16

Current date and time
Zulu (UTC)  29-Sep-2020 20:29:32
Local (UTC-4)  29-Sep-2020 16:29:32
 
METAR
KMUI 
10nm NW 
291956Z 34013G21KT 10SM FEW010 BKN021 OVC031 18/14 A2978 RMK AO2A SLP085 T01760143
KLNS 
13nm S 
291953Z 34008KT 10SM BKN040 25/17 A2976 RMK AO2 SLP074 T02500172
KMDT 
18nm W 
291956Z 34012KT 10SM FEW013 OVC028 19/14 A2978 RMK AO2 SLP084 T01890139
TAF
KMUI 
10nm NW 
291615Z 2916/3017 15006KT 9999 OVC015 QNH2979INS BECMG 2916/2918 18009KT 6000 -SHRA OVC015 QNH2972INS BECMG 3003/3005 31009KT 9000 -SHRA BKN009 OVC015 QNH2967INS TEMPO 3005/3010 BKN007 BECMG 3012/3013 29009KT 9999 NSW BKN020 OVC030 QNH2960INS BECMG 3014/3015 26010G22KT 9999 BKN020 OVC030 QNH2962INS TX24/2918Z TN13/3007Z
KLNS 
13nm S 
291743Z 2918/3018 15004KT P6SM VCSH BKN025 FM292000 31008KT 6SM -SHRA VCTS OVC030CB FM300300 32007KT 3SM -SHRA BR OVC012 FM301100 31008KT P6SM -SHRA OVC015 FM301300 29010G17KT P6SM BKN050 OVC100 FM301500 28014G24KT P6SM SCT050
KMDT 
18nm W 
291743Z 2918/3018 27006KT P6SM VCSH BKN025 FM291900 31008KT 6SM -SHRA VCTS OVC030CB FM300300 32007KT 3SM -SHRA BR OVC012 FM301100 31008KT P6SM -SHRA OVC015 FM301300 29010G17KT P6SM BKN050 OVC100 FM301500 28014G24KT P6SM SCT050
NOTAMs
Click for the latest NOTAMs
NOTAMs are issued by the DoD/FAA and will open in a separate window not controlled by AirNav.

 

 
 

Would you like to see your business listed on this page?

 If your business provides an interesting product or service to pilots, flight crews, aircraft, or users of the VA Medical Center Heliport, you should consider listing it here.  To start the listing process, click on the button below
 
Add a business
 

Other Pages about VA Medical Center Heliport

Update a link
 
Copyright © AirNav, LLC. All rights reserved. Privacy Policy  Contact